CST,Max TemperatureF,Mean TemperatureF,Min TemperatureF,Max Dew PointF,MeanDew PointF,Min DewpointF,Max Humidity, Mean Humidity, Min Humidity, Max Sea Level PressureIn, Mean Sea Level PressureIn, Min Sea Level PressureIn, Max VisibilityMiles, Mean VisibilityMiles, Min VisibilityMiles, Max Wind SpeedMPH, Mean Wind SpeedMPH, Max Gust SpeedMPH,PrecipitationIn, CloudCover, Events, WindDirDegrees
2013-11-1,54,48,41,44,39,37,96,78,59,29.85,29.70,29.54,10,10,8,18,9,24,0.02,5,,275
2013-11-2,53,43,32,40,35,30,89,67,44,30.17,30.05,29.86,10,10,10,22,10,28,0.00,5,,308
2013-11-3,56,42,28,35,31,27,92,67,41,30.21,30.13,30.02,10,10,10,25,14,33,0.00,0,,149
2013-11-4,54,51,47,46,42,35,86,71,56,30.15,30.04,29.99,10,10,8,26,11,38,0.07,6,Rain,172
2013-11-5,58,53,48,56,51,45,93,90,86,30.17,30.03,29.81,10,7,2,26,10,31,0.41,8,Rain,136
2013-11-6,58,44,29,57,34,25,93,71,49,30.30,30.07,29.79,10,9,2,25,14,31,0.27,5,Rain,307
2013-11-7,49,38,26,34,29,23,92,71,50,30.35,30.31,30.25,10,10,10,17,8,23,0.00,2,,272
2013-11-8,54,40,25,37,29,21,81,62,42,30.32,30.09,29.86,10,10,10,29,13,37,0.00,0,,181
2013-11-9,59,49,38,37,34,31,70,55,40,30.29,30.07,29.87,10,10,10,24,13,29,0.00,0,,277
2013-11-10,49,37,25,32,28,23,92,69,45,30.45,30.34,30.19,10,10,10,15,7,21,0.00,2,,232
2013-11-11,51,35,18,39,26,12,92,71,50,30.69,30.35,30.11,10,7,0,26,16,33,0.01,6,Fog-Snow,336
2013-11-12,29,21,12,16,12,7,84,71,58,30.88,30.77,30.66,10,10,10,14,7,16,0.00,0,,290
2013-11-13,48,33,17,19,13,9,80,51,21,30.65,30.38,30.12,10,10,10,25,14,33,0.00,0,,202
2013-11-14,54,46,37,27,24,20,55,45,35,30.09,29.98,29.92,10,10,10,23,13,29,0.00,1,,213
2013-11-15,57,46,34,38,32,27,76,58,39,29.96,29.88,29.78,10,10,10,18,10,22,0.00,1,,192
2013-11-16,66,55,44,56,51,39,89,76,63,29.76,29.54,29.41,10,10,6,38,17,47,0.06,6,Rain-Thunderstorm,176
2013-11-17,63,52,41,58,47,36,93,82,71,29.96,29.50,29.27,10,10,8,37,12,46,T,5,Rain-Thunderstorm,263
2013-11-18,48,38,27,35,30,25,89,70,50,30.31,30.18,29.97,10,10,10,22,9,28,0.00,0,,301
2013-11-19,51,38,25,31,27,22,92,69,46,30.31,30.22,30.10,10,10,9,21,12,26,0.00,2,,146
2013-11-20,42,40,37,37,34,23,92,68,43,30.10,30.00,29.92,10,6,2,23,13,30,0.72,8,Rain-Thunderstorm,155
2013-11-21,43,37,30,38,34,28,92,87,82,30.38,30.18,30.03,10,4,2,22,11,25,0.18,6,Rain-Snow,11
2013-11-22,30,24,17,28,22,13,92,84,75,30.61,30.52,30.38,10,8,2,24,13,30,T,5,Snow,321
2013-11-23,19,14,8,13,7,3,80,68,56,30.83,30.77,30.61,10,10,10,25,14,31,0.00,0,,326
2013-11-24,29,17,4,11,6,0,88,64,39,30.80,30.61,30.34,10,10,10,17,9,22,0.00,1,,200
2013-11-25,38,32,25,26,20,11,85,68,50,30.30,30.18,30.12,10,10,10,20,10,26,T,6,Snow,232
2013-11-26,32,24,16,24,16,8,88,65,42,30.36,30.24,30.13,10,10,8,32,16,40,0.00,3,,320
2013-11-27,26,19,11,13,8,5,76,59,42,30.42,30.32,30.17,10,10,10,14,8,16,0.00,0,,269
2013-11-28,35,26,16,17,15,13,77,62,47,30.54,30.31,30.11,10,10,10,21,9,25,0.00,0,,303
2013-11-29,40,26,11,22,17,9,92,68,44,30.58,30.47,30.28,10,10,9,17,9,21,0.00,0,,149
2013-11-30,52,40,28,31,27,22,85,65,44,30.27,30.14,30.06,10,10,10,14,8,18,0.00,0,,217